�N����,�����b,���ԉ��x,�t���O,���Ԏ��x,�t���O,��󒲎�,�t���O,����,�t���O,�����W,�t���O
2003/1/1,0:00:00,16.9,0,46.6,0,12,0,6.9,0,18.1,0
2003/1/1,0:15:00,16.6,0,46.9,0,12,0,7,0,17.4,0
2003/1/1,0:30:00,16.4,0,47.1,0,12,0,7.2,0,16.9,0
2003/1/1,0:45:00,16.2,0,47.2,0,11.9,0,7.4,0,16.4,0
2003/1/1,1:00:00,16,0,47.5,0,11.9,0,7.5,0,16.1,0
2003/1/1,1:15:00,15.8,0,47.7,0,11.9,0,7.7,0,15.9,0
2003/1/1,1:30:00,15.6,0,47.8,0,11.9,0,7.9,0,15.7,0
2003/1/1,1:45:00,15.4,0,47.8,0,11.8,0,8,0,15.5,0
2003/1/1,2:00:00,15.2,0,47.9,0,11.8,0,8.1,0,15.3,0
2003/1/1,2:15:00,15.1,0,47.9,0,11.7,0,8.2,0,15.1,0
2003/1/1,2:30:00,15,0,47.9,0,11.7,0,8.3,0,14.9,0
2003/1/1,2:45:00,14.8,0,47.9,0,11.7,0,8.4,0,14.8,0
2003/1/1,3:00:00,14.7,0,47.9,0,11.6,0,8.6,0,14.7,0
2003/1/1,3:15:00,14.6,0,48,0,11.6,0,8.6,0,14.5,0
2003/1/1,3:30:00,14.5,0,48,0,11.5,0,8.7,0,14.4,0
2003/1/1,3:45:00,14.3,0,48,0,11.5,0,8.8,0,14.2,0
2003/1/1,4:00:00,14.2,0,48,0,11.4,0,8.9,0,14.2,0
2003/1/1,4:15:00,14.1,0,48.3,0,11.4,0,8.9,0,14.1,0
2003/1/1,4:30:00,14,0,48.3,0,11.3,0,9,0,13.9,0
2003/1/1,4:45:00,13.8,0,48.3,0,11.3,0,9.1,0,13.7,0
2003/1/1,5:00:00,13.7,0,48.4,0,11.2,0,9.1,0,13.6,0
2003/1/1,5:15:00,13.6,0,48.3,0,11.2,0,9.2,0,13.5,0
2003/1/1,5:30:00,13.6,0,48.2,0,11.1,0,9.2,0,13.4,0
2003/1/1,5:45:00,13.5,0,48.3,0,11,0,9.3,0,13.4,0
2003/1/1,6:00:00,13.4,0,48.5,0,11,0,9.3,0,13.2,0
2003/1/1,6:15:00,13.3,0,48.6,0,10.9,0,9.4,0,13.2,0
2003/1/1,6:30:00,13.2,0,48.7,0,10.9,0,9.4,0,13.1,0
2003/1/1,6:45:00,13.1,0,48.8,0,10.8,0,9.5,0,13,0
2003/1/1,7:00:00,13,0,49,0,10.7,0,9.5,0,13,0
2003/1/1,7:15:00,12.9,0,49.1,0,10.7,0,9.6,0,12.9,0
2003/1/1,7:30:00,12.8,0,49.4,0,10.6,0,9.6,0,12.8,0
2003/1/1,7:45:00,12.8,0,49.3,0,10.7,0,9.7,0,12.8,0
2003/1/1,8:00:00,12.8,0,49.2,0,10.9,0,9.7,0,12.8,0
2003/1/1,8:15:00,12.8,0,49.4,0,11.2,0,9.7,0,12.7,0
2003/1/1,8:30:00,12.8,0,49.3,0,11,0,9.8,0,12.7,0
2003/1/1,8:45:00,12.7,0,49.8,0,11.1,0,9.8,0,12.7,0
2003/1/1,9:00:00,12.6,0,50.4,0,11.9,0,9.8,0,12.8,0
2003/1/1,9:15:00,12.5,0,50.8,0,12,0,9.9,0,12.8,0
2003/1/1,9:30:00,12.5,0,51.1,0,11.6,0,9.9,0,12.8,0
2003/1/1,9:45:00,12.5,0,51.3,0,11.4,0,9.9,0,12.8,0
2003/1/1,10:00:00,12.5,0,51.3,0,11.3,0,9.9,0,12.8,0
2003/1/1,10:15:00,12.6,0,51.5,0,11.2,0,10,0,12.8,0
2003/1/1,10:30:00,13.2,0,50.7,0,11,0,10,0,12.9,0
2003/1/1,10:45:00,15.7,0,45.4,0,11,0,10,0,14.9,0
2003/1/1,11:00:00,17,0,46.4,0,11,0,10.1,0,23,0
2003/1/1,11:15:00,17.4,0,45.6,0,11,0,10.1,0,20.7,0
2003/1/1,11:30:00,16.7,0,47.1,0,11,0,10.1,0,19.1,0
2003/1/1,11:45:00,18.1,0,44.7,0,11.1,0,7.6,0,18.4,0
2003/1/1,12:00:00,18,0,45.4,0,11.2,0,7.7,0,18.5,0
2003/1/1,12:15:00,18,0,45.2,0,11.2,0,7.8,0,18.7,0
2003/1/1,12:30:00,19.1,0,41.9,0,11.3,0,7.8,0,19,0
2003/1/1,12:45:00,20.1,0,39.4,0,11.3,0,7.9,0,19,0
2003/1/1,13:00:00,20.4,0,39.2,0,11.4,0,8,0,19.3,0
2003/1/1,13:15:00,18.7,0,42.4,0,11.5,0,8.1,0,19.5,0
2003/1/1,13:30:00,18.5,0,43,0,11.6,0,8.2,0,19.6,0
2003/1/1,13:45:00,18.4,0,43.6,0,11.6,0,8.5,0,19.5,0
2003/1/1,14:00:00,18.3,0,43.8,0,11.7,0,8.6,0,19.6,0
2003/1/1,14:15:00,18.4,0,43.8,0,11.8,0,8.7,0,19.8,0
2003/1/1,14:30:00,18.4,0,43.8,0,11.9,0,8.8,0,19.9,0
2003/1/1,14:45:00,18.3,0,43.7,0,11.9,0,8.9,0,19.9,0
2003/1/1,15:00:00,18.4,0,43.5,0,12,0,9.1,0,20.1,0
2003/1/1,15:15:00,18.4,0,43.3,0,12,0,9.2,0,20.2,0
2003/1/1,15:30:00,18.4,0,43.2,0,12.1,0,9.3,0,20.3,0
2003/1/1,15:45:00,18.4,0,43.1,0,12.1,0,9.4,0,20.2,0
2003/1/1,16:00:00,18.5,0,43,0,12.2,0,9.5,0,20.3,0
2003/1/1,16:15:00,18.5,0,42.8,0,12.3,0,9.6,0,20.4,0
2003/1/1,16:30:00,18.9,0,43.2,0,12.4,0,9.6,0,20.5,0
2003/1/1,16:45:00,18.8,0,42.5,0,12.4,0,9.7,0,20.6,0
2003/1/1,17:00:00,18.8,0,42.3,0,12.5,0,9.8,0,20.7,0
2003/1/1,17:15:00,18.8,0,42.2,0,12.5,0,9.8,0,20.9,0
2003/1/1,17:30:00,18.9,0,42.1,0,12.6,0,9.9,0,20.9,0
2003/1/1,17:45:00,18.8,0,42.1,0,12.6,0,10,0,20.8,0
2003/1/1,18:00:00,18.9,0,41.9,0,12.6,0,10.2,0,20.9,0
2003/1/1,18:15:00,18.9,0,41.9,0,12.7,0,10.3,0,21,0
2003/1/1,18:30:00,18.9,0,41.7,0,12.7,0,10.4,0,21.1,0
2003/1/1,18:45:00,18.9,0,42,0,12.7,0,10.5,0,20.9,0
2003/1/1,19:00:00,18.9,0,41.8,0,12.8,0,10.6,0,20.9,0
2003/1/1,19:15:00,18.9,0,41.9,0,12.8,0,10.7,0,21,0
2003/1/1,19:30:00,18.9,0,42,0,12.8,0,10.8,0,21.1,0
2003/1/1,19:45:00,18.9,0,42.2,0,12.8,0,10.9,0,20.9,0
2003/1/1,20:00:00,18.9,0,42.4,0,12.8,0,11,0,22.8,0
2003/1/1,20:15:00,19,0,42.3,0,12.8,0,5.8,0,25.4,0
2003/1/1,20:30:00,19.1,0,42.4,0,12.9,0,5.9,0,26.4,0
2003/1/1,20:45:00,19.1,0,42.3,0,12.9,0,6.2,0,24,0
2003/1/1,21:00:00,19.1,0,42,0,12.9,0,6.4,0,22.6,0
2003/1/1,21:15:00,19,0,41.8,0,12.9,0,6.7,0,22.3,0
2003/1/1,21:30:00,19.1,0,41.8,0,12.9,0,6.9,0,22.2,0
2003/1/1,21:45:00,19,0,41.7,0,13,0,7.2,0,21.9,0
2003/1/1,22:00:00,19,0,41.5,0,13,0,7.4,0,21.2,0
2003/1/1,22:15:00,18.9,0,41.6,0,12.9,0,7.5,0,21.4,0
2003/1/1,22:30:00,18.8,0,41.6,0,12.9,0,7.7,0,21.3,0
2003/1/1,22:45:00,18.7,0,41.6,0,12.9,0,7.9,0,21,0
2003/1/1,23:00:00,18.4,0,42.2,0,12.9,0,8.1,0,20,0
2003/1/1,23:15:00,18.2,0,42.7,0,12.9,0,8.2,0,19.4,0
2003/1/1,23:30:00,18,0,43,0,12.9,0,8.4,0,18.8,0
2003/1/1,23:45:00,17.8,0,43.3,0,12.8,0,8.5,0,18.4,0
2003/1/2,0:00:00,17.6,0,43.6,0,12.8,0,8.7,0,18.1,0
2003/1/2,0:15:00,17.4,0,43.7,0,12.8,0,8.8,0,17.8,0
2003/1/2,0:30:00,17.3,0,43.9,0,12.7,0,8.9,0,17.6,0
2003/1/2,0:45:00,17.1,0,44.1,0,12.7,0,9,0,17.4,0
2003/1/2,1:00:00,16.9,0,44.3,0,12.7,0,9.1,0,17.1,0
2003/1/2,1:15:00,16.7,0,44.4,0,12.6,0,9.2,0,16.9,0
2003/1/2,1:30:00,16.6,0,44.5,0,12.6,0,9.3,0,16.7,0
2003/1/2,1:45:00,16.4,0,44.6,0,12.5,0,9.4,0,16.5,0
2003/1/2,2:00:00,16.2,0,44.8,0,12.5,0,9.5,0,16.4,0
2003/1/2,2:15:00,16,0,45,0,12.4,0,9.5,0,16.2,0
2003/1/2,2:30:00,15.9,0,45.1,0,12.4,0,9.6,0,16,0
2003/1/2,2:45:00,15.8,0,45.2,0,12.3,0,9.7,0,15.9,0
2003/1/2,3:00:00,15.6,0,45.3,0,12.3,0,9.7,0,15.7,0
2003/1/2,3:15:00,15.5,0,45.3,0,12.2,0,9.8,0,15.6,0
2003/1/2,3:30:00,15.4,0,45.4,0,12.2,0,9.8,0,15.4,0
2003/1/2,3:45:00,15.2,0,45.6,0,12.1,0,9.9,0,15.2,0
2003/1/2,4:00:00,15.1,0,45.6,0,12.1,0,9.9,0,15.1,0
2003/1/2,4:15:00,14.9,0,45.7,0,12,0,10,0,15,0
2003/1/2,4:30:00,14.8,0,45.8,0,11.9,0,10.1,0,14.9,0
2003/1/2,4:45:00,14.7,0,45.8,0,11.9,0,10.1,0,14.7,0
2003/1/2,5:00:00,14.6,0,45.8,0,11.8,0,10.1,0,14.6,0
2003/1/2,5:15:00,14.6,0,45.7,0,11.8,0,10.2,0,14.5,0
2003/1/2,5:30:00,14.4,0,45.7,0,11.7,0,10.2,0,14.5,0
2003/1/2,5:45:00,14.3,0,45.7,0,11.6,0,10.3,0,14.4,0
2003/1/2,6:00:00,14.3,0,45.9,0,11.6,0,10.3,0,14.3,0
2003/1/2,6:15:00,14.2,0,45.9,0,11.5,0,10.3,0,14.2,0
2003/1/2,6:30:00,14.1,0,46,0,11.5,0,10.4,0,14.2,0
2003/1/2,6:45:00,14,0,46.1,0,11.4,0,10.4,0,14.1,0
2003/1/2,7:00:00,13.9,0,46.1,0,11.3,0,10.4,0,14,0
2003/1/2,7:15:00,13.8,0,46.2,0,11.3,0,10.5,0,13.9,0
2003/1/2,7:30:00,13.7,0,46.4,0,11.2,0,10.5,0,13.8,0
2003/1/2,7:45:00,13.7,0,46.3,0,11.2,0,10.5,0,13.7,0
2003/1/2,8:00:00,13.6,0,46.5,0,11.1,0,10.5,0,13.6,0
2003/1/2,8:15:00,13.4,0,46.5,0,11,0,10.6,0,13.5,0
2003/1/2,8:30:00,13.4,0,46.6,0,11,0,10.6,0,13.4,0
2003/1/2,8:45:00,13.3,0,46.7,0,10.9,0,10.6,0,13.5,0
2003/1/2,9:00:00,13.2,0,46.7,0,10.8,0,10.6,0,13.4,0
2003/1/2,9:15:00,13.1,0,46.8,0,10.8,0,10.6,0,13.4,0
2003/1/2,9:30:00,13.1,0,46.9,0,10.7,0,10.6,0,13.2,0
2003/1/2,9:45:00,13,0,47.1,0,10.6,0,10.7,0,13.1,0
2003/1/2,10:00:00,12.9,0,47,0,10.6,0,10.7,0,13,0
2003/1/2,10:15:00,12.8,0,46.9,0,10.5,0,10.7,0,12.9,0
2003/1/2,10:30:00,13.8,0,44.4,0,10.4,0,10.7,0,13.3,0
2003/1/2,10:45:00,15.1,0,41.6,0,10.4,0,10.7,0,14.5,0
2003/1/2,11:00:00,15.4,0,41.1,0,10.4,0,10.7,0,15.2,0
2003/1/2,11:15:00,15.5,0,40.9,0,10.3,0,10.7,0,15.8,0
2003/1/2,11:30:00,15.7,0,40,0,10.3,0,10.7,0,15.8,0
2003/1/2,11:45:00,15.6,0,40.8,0,10.3,0,10.7,0,16.1,0
2003/1/2,12:00:00,13.7,0,39.4,0,10.4,0,10.7,0,15.6,0
2003/1/2,12:15:00,13.3,0,37.9,0,10.4,0,10.7,0,15.1,0
2003/1/2,12:30:00,12.9,0,37.8,0,10.4,0,10.7,0,14.3,0
2003/1/2,12:45:00,12.7,0,39.4,0,10.4,0,10.7,0,14.3,0
2003/1/2,13:00:00,12.6,0,38.4,0,10.4,0,10.7,0,14.4,0
2003/1/2,13:15:00,12.4,0,39.1,0,10.4,0,10.7,0,14.4,0
2003/1/2,13:30:00,12.6,0,40.9,0,10.3,0,10.8,0,14.3,0
2003/1/2,13:45:00,12.9,0,44.8,0,10.3,0,10.7,0,14,0
2003/1/2,14:00:00,13,0,45.4,0,10.3,0,10.8,0,13.8,0
2003/1/2,14:15:00,13.1,0,45.7,0,10.3,0,10.8,0,13.7,0
2003/1/2,14:30:00,13.1,0,46.4,0,10.3,0,10.7,0,13.6,0
2003/1/2,14:45:00,13,0,46.6,0,10.2,0,10.8,0,13.5,0
2003/1/2,15:00:00,13,0,46.5,0,10.2,0,10.8,0,13.4,0
2003/1/2,15:15:00,13,0,46.7,0,10.2,0,10.8,0,13.3,0
2003/1/2,15:30:00,13,0,46.8,0,10.2,0,10.8,0,13.3,0
2003/1/2,15:45:00,12.9,0,46.8,0,10.1,0,10.8,0,13.2,0
2003/1/2,16:00:00,12.9,0,46.8,0,10.1,0,10.8,0,13.1,0
2003/1/2,16:15:00,12.8,0,46.8,0,10.1,0,10.8,0,13,0
2003/1/2,16:30:00,12.8,0,46.8,0,10,0,10.8,0,13,0
2003/1/2,16:45:00,12.7,0,46.8,0,10,0,10.8,0,12.9,0
2003/1/2,17:00:00,12.6,0,46.8,0,10,0,10.8,0,12.8,0
2003/1/2,17:15:00,12.6,0,46.8,0,9.9,0,10.8,0,12.7,0
2003/1/2,17:30:00,12.5,0,46.8,0,9.9,0,10.8,0,12.7,0
2003/1/2,17:45:00,12.4,0,47,0,9.9,0,10.8,0,12.6,0
2003/1/2,18:00:00,12.3,0,47.1,0,9.8,0,10.8,0,12.5,0
2003/1/2,18:15:00,12.3,0,47.2,0,9.8,0,10.8,0,12.4,0
2003/1/2,18:30:00,12.2,0,47.2,0,9.8,0,10.8,0,12.4,0
2003/1/2,18:45:00,12.2,0,47.4,0,9.8,0,10.8,0,12.4,0
2003/1/2,19:00:00,12.1,0,47.4,0,9.7,0,10.8,0,12.4,0
2003/1/2,19:15:00,12.1,0,47.6,0,9.7,0,10.8,0,12.3,0
2003/1/2,19:30:00,12.1,0,47.5,0,9.7,0,10.8,0,12.3,0
2003/1/2,19:45:00,12,0,47.4,0,9.6,0,10.8,0,12.2,0
2003/1/2,20:00:00,12,0,47.5,0,9.6,0,10.8,0,12.2,0
2003/1/2,20:15:00,12,0,47.4,0,9.6,0,10.8,0,12.1,0
2003/1/2,20:30:00,11.9,0,47.6,0,9.5,0,10.8,0,12.1,0
2003/1/2,20:45:00,11.8,0,47.7,0,9.5,0,10.8,0,12,0
2003/1/2,21:00:00,11.7,0,47.9,0,9.5,0,10.8,0,12,0
2003/1/2,21:15:00,11.7,0,47.7,0,9.5,0,10.8,0,11.9,0
2003/1/2,21:30:00,11.6,0,47.9,0,9.4,0,10.8,0,11.9,0
2003/1/2,21:45:00,11.6,0,47.9,0,9.4,0,10.8,0,11.9,0
2003/1/2,22:00:00,11.5,0,47.9,0,9.4,0,10.7,0,11.8,0
2003/1/2,22:15:00,11.5,0,48.1,0,9.3,0,10.7,0,11.8,0
2003/1/2,22:30:00,11.4,0,48.1,0,9.3,0,10.7,0,11.8,0
2003/1/2,22:45:00,11.3,0,48.3,0,9.3,0,10.7,0,11.7,0
2003/1/2,23:00:00,11.2,0,48.4,0,9.2,0,10.7,0,11.7,0
2003/1/2,23:15:00,11.2,0,48.5,0,9.2,0,10.7,0,11.6,0
2003/1/2,23:30:00,11.3,0,49.2,0,9.2,0,10.7,0,11.6,0
2003/1/2,23:45:00,11.4,0,49.3,0,9.2,0,10.6,0,11.7,0
2003/1/3,0:00:00,11.5,0,49.4,0,9.2,0,10.6,0,11.7,0
2003/1/3,0:15:00,11.5,0,49.5,0,9.2,0,10.6,0,11.7,0
2003/1/3,0:30:00,11.6,0,49.2,0,9.1,0,10.6,0,11.8,0
2003/1/3,0:45:00,11.6,0,49.1,0,9.1,0,10.5,0,11.8,0
2003/1/3,1:00:00,11.4,0,49.1,0,9.1,0,10.5,0,11.8,0
2003/1/3,1:15:00,11.2,0,49.4,0,9.1,0,10.5,0,11.7,0
2003/1/3,1:30:00,11,0,49.4,0,9,0,10.5,0,11.6,0
2003/1/3,1:45:00,11,0,49.2,0,9,0,10.4,0,11.5,0
2003/1/3,2:00:00,10.9,0,49.2,0,9,0,10.4,0,11.4,0
2003/1/3,2:15:00,10.9,0,49,0,8.9,0,10.4,0,11.3,0
2003/1/3,2:30:00,10.9,0,48.8,0,8.9,0,10.4,0,11.2,0
2003/1/3,2:45:00,10.9,0,48.8,0,8.9,0,10.3,0,11.2,0
2003/1/3,3:00:00,10.8,0,48.7,0,8.8,0,10.3,0,11.1,0
2003/1/3,3:15:00,10.7,0,48.8,0,8.8,0,10.3,0,11.1,0
2003/1/3,3:30:00,10.6,0,48.9,0,8.7,0,10.2,0,11,0
2003/1/3,3:45:00,10.5,0,48.9,0,8.7,0,10.2,0,10.9,0
2003/1/3,4:00:00,10.5,0,48.9,0,8.7,0,10.2,0,10.8,0
2003/1/3,4:15:00,10.4,0,48.9,0,8.6,0,10.2,0,10.7,0
2003/1/3,4:30:00,10.3,0,49,0,8.6,0,10.1,0,10.6,0
2003/1/3,4:45:00,10.2,0,49,0,8.5,0,10.1,0,10.6,0
2003/1/3,5:00:00,10.2,0,49,0,8.5,0,10.1,0,10.5,0
2003/1/3,5:15:00,10.2,0,48.9,0,8.5,0,10,0,10.5,0
2003/1/3,5:30:00,10.1,0,48.8,0,8.4,0,10,0,10.4,0
2003/1/3,5:45:00,10,0,48.9,0,8.4,0,10,0,10.3,0
2003/1/3,6:00:00,9.9,0,49,0,8.3,0,10,0,10.2,0
2003/1/3,6:15:00,9.9,0,49,0,8.3,0,9.9,0,10.2,0
2003/1/3,6:30:00,9.9,0,48.9,0,8.3,0,9.9,0,10.2,0
2003/1/3,6:45:00,9.8,0,48.9,0,8.2,0,9.9,0,10.2,0
2003/1/3,7:00:00,9.8,0,49,0,8.2,0,9.8,0,10.2,0
2003/1/3,7:15:00,9.7,0,48.9,0,8.2,0,9.8,0,10.1,0
2003/1/3,7:30:00,9.7,0,48.9,0,8.2,0,9.8,0,10.1,0
2003/1/3,7:45:00,9.7,0,48.9,0,8.2,0,9.8,0,10.1,0
2003/1/3,8:00:00,9.7,0,49.3,0,8.4,0,9.8,0,10.1,0
2003/1/3,8:15:00,9.6,0,49.9,0,8.6,0,9.7,0,10.1,0
2003/1/3,8:30:00,9.6,0,50.1,0,8.9,0,9.7,0,10.1,0
2003/1/3,8:45:00,9.7,0,50.3,0,9,0,9.7,0,10.2,0
2003/1/3,9:00:00,9.7,0,50.3,0,9.1,0,9.7,0,10.3,0
2003/1/3,9:15:00,9.8,0,50.3,0,9.3,0,9.7,0,10.4,0
2003/1/3,9:30:00,9.9,0,50.2,0,9,0,9.7,0,10.4,0
2003/1/3,9:45:00,11.3,0,49,0,8.9,0,9.7,0,12.3,0
2003/1/3,10:00:00,13.1,0,46,0,8.9,0,9.7,0,14.8,0
2003/1/3,10:15:00,13.6,0,45.2,0,8.8,0,9.7,0,14.3,0
2003/1/3,10:30:00,13.4,0,46.6,0,8.7,0,9.6,0,14.2,0
2003/1/3,10:45:00,13.2,0,46.8,0,8.7,0,9.7,0,14,0
2003/1/3,11:00:00,13.3,0,46.2,0,8.7,0,9.6,0,14,0
2003/1/3,11:15:00,13.3,0,46.7,0,8.8,0,9.6,0,14.2,0
2003/1/3,11:30:00,13.5,0,45.6,0,8.8,0,9.6,0,14.5,0
2003/1/3,11:45:00,13.1,0,47.3,0,8.8,0,9.6,0,14.2,0
2003/1/3,12:00:00,13,0,47.5,0,8.8,0,9.6,0,13.7,0
2003/1/3,12:15:00,13,0,47.2,0,8.8,0,9.6,0,13.5,0
2003/1/3,12:30:00,13,0,47.1,0,8.9,0,9.6,0,13.4,0
2003/1/3,12:45:00,13,0,47.3,0,8.9,0,9.7,0,13.4,0
2003/1/3,13:00:00,12.9,0,47.5,0,8.9,0,9.7,0,13.2,0
2003/1/3,13:15:00,12.9,0,47.8,0,8.9,0,9.6,0,13.1,0
2003/1/3,13:30:00,12.8,0,47.9,0,8.9,0,9.7,0,13,0
2003/1/3,13:45:00,12.8,0,48,0,8.9,0,9.7,0,12.8,0
2003/1/3,14:00:00,12.8,0,48,0,8.9,0,9.7,0,12.8,0
2003/1/3,14:15:00,12.7,0,48.1,0,8.9,0,9.7,0,12.7,0
2003/1/3,14:30:00,12.8,0,47.9,0,9,0,9.7,0,12.7,0
2003/1/3,14:45:00,12.7,0,47.9,0,9,0,9.7,0,12.6,0
2003/1/3,15:00:00,12.7,0,48,0,9,0,9.7,0,12.6,0
2003/1/3,15:15:00,12.7,0,48.1,0,9,0,9.7,0,12.5,0
2003/1/3,15:30:00,12.6,0,48.2,0,9,0,9.8,0,12.5,0
2003/1/3,15:45:00,12.6,0,48.1,0,9,0,9.8,0,12.4,0
2003/1/3,16:00:00,12.5,0,48,0,9,0,9.8,0,12.4,0
2003/1/3,16:15:00,12.5,0,48.1,0,9.1,0,9.8,0,12.4,0
2003/1/3,16:30:00,12.4,0,48.1,0,9.1,0,9.8,0,12.4,0
2003/1/3,16:45:00,12.4,0,48.1,0,9.1,0,9.8,0,12.3,0
2003/1/3,17:00:00,12.4,0,48.2,0,9.1,0,9.8,0,12.3,0
2003/1/3,17:15:00,12.3,0,48.3,0,9.1,0,9.8,0,12.3,0
2003/1/3,17:30:00,12.4,0,48.4,0,9.1,0,6.8,0,12.3,0
2003/1/3,17:45:00,12.4,0,48.3,0,9.1,0,6.8,0,12.4,0
2003/1/3,18:00:00,12.3,0,48.4,0,9.1,0,6.9,0,12.3,0
2003/1/3,18:15:00,12.3,0,48.5,0,9.1,0,7,0,12.3,0
2003/1/3,18:30:00,12.3,0,48.7,0,9.1,0,7.1,0,12.2,0
2003/1/3,18:45:00,12.3,0,48.7,0,9.1,0,7.2,0,12.2,0
2003/1/3,19:00:00,12.2,0,48.8,0,9.2,0,7.3,0,12.2,0
2003/1/3,19:15:00,12.2,0,48.9,0,9.2,0,7.4,0,12.2,0
2003/1/3,19:30:00,12.2,0,49,0,9.2,0,7.5,0,12.2,0
2003/1/3,19:45:00,12.2,0,49.1,0,9.2,0,7.6,0,12.2,0
2003/1/3,20:00:00,12.2,0,49.2,0,9.2,0,7.7,0,12.2,0
2003/1/3,20:15:00,12.1,0,49.3,0,9.2,0,7.7,0,12.1,0
2003/1/3,20:30:00,13.1,0,47.7,0,9.2,0,7.8,0,12.2,0
2003/1/3,20:45:00,13.7,0,46.8,0,9.2,0,7.9,0,12.9,0
2003/1/3,21:00:00,14.1,0,46,0,9.3,0,8,0,13.8,0
2003/1/3,21:15:00,14.2,0,46.4,0,9.3,0,8,0,14.5,0
2003/1/3,21:30:00,14.8,0,44.9,0,9.3,0,4.9,0,14.7,0
2003/1/3,21:45:00,14.6,0,45.5,0,9.4,0,5,0,15.1,0
2003/1/3,22:00:00,14.6,0,46,0,9.4,0,5.2,0,15.8,0
2003/1/3,22:15:00,14.8,0,46,0,9.5,0,5.4,0,16.2,0
2003/1/3,22:30:00,15,0,45.9,0,9.5,0,5.6,0,16.3,0
2003/1/3,22:45:00,15,0,45.3,0,9.5,0,5.8,0,16.4,0
2003/1/3,23:00:00,15.1,0,45.3,0,9.6,0,6,0,16.8,0
2003/1/3,23:15:00,15.7,0,44.9,0,9.6,0,6.2,0,17.1,0
2003/1/3,23:30:00,15.4,0,44.6,0,9.6,0,6.4,0,17.2,0
2003/1/3,23:45:00,15.8,0,44.3,0,9.7,0,4.6,0,16.9,0
2003/1/4,0:00:00,15.7,0,44.5,0,9.7,0,4.7,0,17.2,0
2003/1/4,0:15:00,16.5,0,43.7,0,9.7,0,4.8,0,17.4,0
2003/1/4,0:30:00,17.1,0,42.1,0,9.8,0,4.9,0,17.5,0
2003/1/4,0:45:00,15.5,0,46.1,0,9.8,0,5.1,0,16.8,0
2003/1/4,1:00:00,15.2,0,46.5,0,9.8,0,5.3,0,15.9,0
2003/1/4,1:15:00,14.9,0,46.9,0,9.9,0,5.5,0,15.3,0
2003/1/4,1:30:00,14.7,0,47.1,0,9.9,0,5.7,0,14.8,0
2003/1/4,1:45:00,14.6,0,47.3,0,9.9,0,5.9,0,14.6,0
2003/1/4,2:00:00,14.4,0,47.4,0,9.9,0,6,0,14.4,0
2003/1/4,2:15:00,14.2,0,47.8,0,9.9,0,6.2,0,14.2,0
2003/1/4,2:30:00,14.1,0,48,0,9.9,0,6.4,0,14.1,0
2003/1/4,2:45:00,14,0,48,0,9.9,0,6.5,0,13.9,0
2003/1/4,3:00:00,13.9,0,48,0,9.9,0,6.6,0,13.8,0
2003/1/4,3:15:00,13.8,0,48.2,0,9.9,0,6.7,0,13.6,0
2003/1/4,3:30:00,13.7,0,48.2,0,9.9,0,6.9,0,13.4,0
2003/1/4,3:45:00,13.6,0,48.2,0,9.9,0,7,0,13.3,0
2003/1/4,4:00:00,13.5,0,48.4,0,9.9,0,7.1,0,13.2,0
2003/1/4,4:15:00,13.4,0,48.5,0,9.9,0,7.2,0,13.1,0
2003/1/4,4:30:00,13.3,0,48.4,0,9.9,0,7.3,0,13,0
2003/1/4,4:45:00,13.5,0,48.8,0,9.9,0,7.4,0,13.1,0
2003/1/4,5:00:00,13.7,0,48.7,0,9.9,0,7.5,0,13.4,0
2003/1/4,5:15:00,13.8,0,48.4,0,9.9,0,7.6,0,14.1,0
2003/1/4,5:30:00,14,0,48.3,0,9.9,0,7.7,0,14.7,0
2003/1/4,5:45:00,14.1,0,48.1,0,9.9,0,7.8,0,14.6,0
2003/1/4,6:00:00,14.1,0,48.1,0,10,0,7.9,0,15,0
2003/1/4,6:15:00,14.3,0,48.1,0,10,0,8,0,15.4,0
2003/1/4,6:30:00,14.4,0,48,0,10,0,8,0,15.8,0
2003/1/4,6:45:00,14.5,0,47.9,0,10,0,8.1,0,15.4,0
2003/1/4,7:00:00,14.5,0,47.5,0,10.1,0,8.2,0,15.7,0
2003/1/4,7:15:00,14.6,0,47.4,0,10.1,0,8.3,0,16.1,0
2003/1/4,7:30:00,14.7,0,47.2,0,10.2,0,8.3,0,16.3,0
2003/1/4,7:45:00,14.7,0,47.6,0,10.2,0,8.4,0,16.1,0
2003/1/4,8:00:00,14.8,0,47.3,0,10.2,0,8.5,0,16.1,0
2003/1/4,8:15:00,14.9,0,47.1,0,10.2,0,8.6,0,16.5,0
2003/1/4,8:30:00,15.1,0,46.8,0,10.5,0,8.7,0,16.7,0
2003/1/4,8:45:00,15.3,0,46.8,0,11.3,0,8.7,0,16.9,0
2003/1/4,9:00:00,15.4,0,46.5,0,11.3,0,8.8,0,16.7,0
2003/1/4,9:15:00,15.4,0,46.5,0,10.9,0,8.9,0,17,0
2003/1/4,9:30:00,15.6,0,46.2,0,10.8,0,8.9,0,17.2,0
2003/1/4,9:45:00,16.2,0,45.9,0,10.9,0,5.3,0,17.4,0
2003/1/4,10:00:00,17.5,0,42.6,0,10.9,0,5.5,0,17.3,0
2003/1/4,10:15:00,17,0,44.1,0,10.9,0,5.6,0,17.8,0
2003/1/4,10:30:00,16.5,0,45.3,0,10.9,0,5.9,0,18.1,0
2003/1/4,10:45:00,16.5,0,45.4,0,10.9,0,6.1,0,18.2,0
2003/1/4,11:00:00,16.9,0,43.9,0,11,0,6.3,0,17.7,0
2003/1/4,11:15:00,16.5,0,45.4,0,11,0,6.5,0,17.6,0
2003/1/4,11:30:00,16.4,0,45.9,0,11.1,0,6.7,0,16.8,0
2003/1/4,11:45:00,16.3,0,46,0,11.2,0,6.8,0,16.2,0
2003/1/4,12:00:00,16.1,0,45.8,0,11.1,0,7,0,15.7,0
2003/1/4,12:15:00,15.9,0,45.7,0,11.1,0,7.2,0,15.1,0
2003/1/4,12:30:00,15.8,0,45.8,0,11.1,0,7.4,0,14.9,0
2003/1/4,12:45:00,15.6,0,45.8,0,11.1,0,7.5,0,14.7,0
2003/1/4,13:00:00,15.4,0,45.7,0,11.1,0,7.6,0,14.5,0
2003/1/4,13:15:00,15.3,0,45.9,0,11.1,0,7.8,0,14.5,0
2003/1/4,13:30:00,15.2,0,45.7,0,11.1,0,7.9,0,14.3,0
2003/1/4,13:45:00,15.1,0,45.9,0,11.2,0,8,0,14.2,0
2003/1/4,14:00:00,15,0,46.2,0,11.2,0,8.1,0,14.2,0
2003/1/4,14:15:00,14.8,0,46.6,0,11.2,0,8.2,0,14.3,0
2003/1/4,14:30:00,14.8,0,46.7,0,11.2,0,8.3,0,14.4,0
2003/1/4,14:45:00,14.8,0,46.7,0,11.2,0,8.4,0,14.2,0
2003/1/4,15:00:00,14.7,0,46.7,0,11.3,0,8.5,0,14.1,0
2003/1/4,15:15:00,14.7,0,46.9,0,11.2,0,8.6,0,14,0
2003/1/4,15:30:00,14.6,0,46.7,0,11.2,0,8.7,0,13.8,0
2003/1/4,15:45:00,14.5,0,47.2,0,11.2,0,8.8,0,13.7,0
2003/1/4,16:00:00,14.3,0,47.1,0,11.2,0,8.8,0,13.4,0
2003/1/4,16:15:00,14.2,0,46.9,0,11.2,0,8.9,0,13.2,0
2003/1/4,16:30:00,14.1,0,47.1,0,11.1,0,9,0,13,0
2003/1/4,16:45:00,14,0,47.2,0,11.1,0,9.1,0,12.8,0
2003/1/4,17:00:00,13.9,0,47.2,0,11.1,0,9.1,0,12.8,0
2003/1/4,17:15:00,13.9,0,47.4,0,11,0,9.2,0,12.8,0
2003/1/4,17:30:00,13.7,0,47.6,0,11,0,9.2,0,12.9,0
2003/1/4,17:45:00,13.6,0,47.9,0,10.9,0,9.3,0,12.9,0
2003/1/4,18:00:00,13.6,0,48,0,10.9,0,9.3,0,12.9,0
2003/1/4,18:15:00,13.5,0,48.1,0,10.9,0,9.4,0,12.9,0
2003/1/4,18:30:00,13.4,0,48.4,0,10.8,0,9.4,0,12.8,0
2003/1/4,18:45:00,13.3,0,48.5,0,10.8,0,9.5,0,12.8,0
2003/1/4,19:00:00,13.1,0,48.6,0,10.8,0,9.5,0,12.7,0
2003/1/4,19:15:00,12.8,0,49.3,0,10.8,0,9.5,0,12.2,0
2003/1/4,19:30:00,12.7,0,49,0,10.7,0,9.6,0,11.9,0
2003/1/4,19:45:00,12.6,0,49.5,0,10.7,0,9.6,0,11.9,0
2003/1/4,20:00:00,12.5,0,49.9,0,10.6,0,9.6,0,12,0
2003/1/4,20:15:00,12.6,0,49.6,0,10.6,0,9.7,0,12.1,0
2003/1/4,20:30:00,12.5,0,49.9,0,10.5,0,9.7,0,12.2,0
2003/1/4,20:45:00,12.5,0,49.6,0,10.5,0,9.7,0,12.2,0
2003/1/4,21:00:00,12.6,0,49.4,0,10.4,0,9.7,0,12.2,0
2003/1/4,21:15:00,12.5,0,49.5,0,10.4,0,9.8,0,12.2,0
2003/1/4,21:30:00,12.1,0,50.7,0,10.4,0,9.8,0,12.1,0
2003/1/4,21:45:00,12.2,0,50.5,0,10.3,0,9.8,0,12.1,0
2003/1/4,22:00:00,12.3,0,50.1,0,10.3,0,9.8,0,12,0
2003/1/4,22:15:00,12.2,0,50,0,10.2,0,9.8,0,12,0
2003/1/4,22:30:00,12.2,0,50,0,10.2,0,9.8,0,12,0
2003/1/4,22:45:00,12.1,0,50.1,0,10.1,0,9.9,0,12,0
2003/1/4,23:00:00,12.1,0,50.2,0,10.1,0,9.9,0,12,0
2003/1/4,23:15:00,13,0,48.8,0,10.1,0,9.9,0,12.1,0
2003/1/4,23:30:00,12.8,0,49.4,0,10.1,0,9.9,0,12.6,0
2003/1/4,23:45:00,12.3,0,50.9,0,10.1,0,9.9,0,12.7,0
2003/1/5,0:00:00,12.1,0,51.3,0,10.1,0,9.9,0,12.5,0
2003/1/5,0:15:00,11.9,0,51.5,0,10,0,9.9,0,12.4,0
2003/1/5,0:30:00,12,0,51.1,0,10,0,9.9,0,12.2,0
2003/1/5,0:45:00,12,0,50.9,0,10,0,9.9,0,12.1,0
2003/1/5,1:00:00,12,0,50.8,0,9.9,0,9.9,0,12,0
2003/1/5,1:15:00,11.9,0,50.5,0,9.9,0,9.9,0,11.9,0
2003/1/5,1:30:00,11.8,0,50.6,0,9.8,0,9.9,0,11.8,0
2003/1/5,1:45:00,11.7,0,50.6,0,9.8,0,9.9,0,11.8,0
2003/1/5,2:00:00,11.7,0,50.5,0,9.8,0,9.9,0,11.7,0
2003/1/5,2:15:00,11.6,0,50.6,0,9.7,0,9.9,0,11.6,0
2003/1/5,2:30:00,11.5,0,50.5,0,9.7,0,9.9,0,11.5,0
2003/1/5,2:45:00,11.4,0,50.7,0,9.6,0,9.9,0,11.5,0
2003/1/5,3:00:00,11.4,0,50.7,0,9.6,0,9.9,0,11.4,0
2003/1/5,3:15:00,11.3,0,50.8,0,9.6,0,5.5,0,11.3,0
2003/1/5,3:30:00,11.3,0,50.8,0,9.5,0,5.6,0,11.3,0
2003/1/5,3:45:00,11.2,0,50.7,0,9.5,0,5.7,0,11.3,0
2003/1/5,4:00:00,11.2,0,50.6,0,9.5,0,5.8,0,11.2,0
2003/1/5,4:15:00,11.1,0,51.4,0,9.5,0,6,0,11.2,0
2003/1/5,4:30:00,11.6,0,50.4,0,9.5,0,6.2,0,11.4,0
2003/1/5,4:45:00,12.4,0,50.4,0,9.5,0,6.4,0,11.9,0
2003/1/5,5:00:00,13.1,0,48.4,0,9.5,0,6.5,0,12.7,0
2003/1/5,5:15:00,12.7,0,49.3,0,9.5,0,6.6,0,13,0
2003/1/5,5:30:00,13.3,0,48.4,0,9.5,0,6.7,0,13,0
2003/1/5,5:45:00,13.9,0,47.1,0,9.5,0,6.8,0,13.6,0
2003/1/5,6:00:00,14.1,0,46.7,0,9.6,0,7,0,14.2,0
2003/1/5,6:15:00,14.1,0,46.5,0,9.6,0,7.1,0,14.4,0
2003/1/5,6:30:00,13.8,0,47.5,0,9.6,0,7.2,0,14.1,0
2003/1/5,6:45:00,14.1,0,47.1,0,9.7,0,5.2,0,14.3,0
2003/1/5,7:00:00,14.5,0,46.3,0,9.8,0,5.3,0,14.6,0
2003/1/5,7:15:00,14.6,0,46,0,9.8,0,5.6,0,14.8,0
2003/1/5,7:30:00,13.6,0,48.1,0,9.9,0,5.8,0,14.6,0
2003/1/5,7:45:00,14.7,0,45.9,0,10,0,6.1,0,14.5,0
2003/1/5,8:00:00,14.8,0,45.6,0,10,0,6.3,0,14.9,0
2003/1/5,8:15:00,15.1,0,44.7,0,10.1,0,6.4,0,15.2,0
2003/1/5,8:30:00,14.7,0,45.1,0,10.2,0,6.6,0,15.3,0
2003/1/5,8:45:00,15.1,0,44.4,0,10.3,0,6.8,0,14.9,0
2003/1/5,9:00:00,14.9,0,45.6,0,10.4,0,7,0,15.3,0
2003/1/5,9:15:00,15.8,0,43.4,0,10.5,0,7.2,0,15.8,0
2003/1/5,9:30:00,16,0,43.4,0,10.4,0,7.3,0,16.2,0
2003/1/5,9:45:00,16,0,44.2,0,10.5,0,7.4,0,17.2,0
2003/1/5,10:00:00,15.8,0,45,0,10.5,0,7.6,0,16.9,0
2003/1/5,10:15:00,16.1,0,43.8,0,10.5,0,7.7,0,17.1,0
2003/1/5,10:30:00,16.1,0,44,0,10.6,0,7.8,0,17.2,0
2003/1/5,10:45:00,15.7,0,47.3,0,10.6,0,7.9,0,17.1,0
2003/1/5,11:00:00,16,0,45.8,0,10.7,0,5,0,17,0
2003/1/5,11:15:00,15.6,0,46.9,0,10.6,0,5.1,0,17.2,0
2003/1/5,11:30:00,15.7,0,46.9,0,10.7,0,5.4,0,17.4,0
2003/1/5,11:45:00,15.5,0,46.8,0,10.8,0,5.6,0,17.4,0
2003/1/5,12:00:00,15.8,0,47.4,0,10.8,0,5.8,0,17.2,0
2003/1/5,12:15:00,15.8,0,46.2,0,10.8,0,5.9,0,17.5,0
2003/1/5,12:30:00,15.9,0,46.6,0,10.8,0,6.2,0,17.6,0
2003/1/5,12:45:00,16,0,46.2,0,10.9,0,6.4,0,17.7,0
2003/1/5,13:00:00,15.7,0,46.5,0,10.9,0,6.5,0,17.3,0
2003/1/5,13:15:00,15.5,0,46.9,0,10.9,0,6.7,0,17.3,0
2003/1/5,13:30:00,15.3,0,46.7,0,11,0,6.9,0,16.4,0
2003/1/5,13:45:00,15,0,46.6,0,10.9,0,7,0,15.6,0
2003/1/5,14:00:00,14.8,0,47.1,0,10.8,0,7.2,0,15.1,0
2003/1/5,14:15:00,14.6,0,47.4,0,10.8,0,7.3,0,14.7,0
2003/1/5,14:30:00,14.4,0,47.2,0,10.8,0,7.4,0,14.4,0
2003/1/5,14:45:00,14.3,0,48.2,0,10.7,0,7.6,0,14.2,0
2003/1/5,15:00:00,14.3,0,48.5,0,10.7,0,7.7,0,14.2,0
2003/1/5,15:15:00,14.2,0,48.9,0,10.6,0,7.8,0,14.2,0
2003/1/5,15:30:00,14.2,0,49.1,0,10.6,0,7.9,0,14.2,0
2003/1/5,15:45:00,14.1,0,49.2,0,10.6,0,8,0,14.2,0
2003/1/5,16:00:00,14,0,49.1,0,10.5,0,8.1,0,14.1,0
2003/1/5,16:15:00,13.9,0,49.1,0,10.5,0,8.2,0,14,0
2003/1/5,16:30:00,13.8,0,49,0,10.5,0,8.3,0,13.9,0
2003/1/5,16:45:00,13.7,0,49.1,0,10.4,0,8.4,0,13.9,0
2003/1/5,17:00:00,13.6,0,49.1,0,10.4,0,8.4,0,13.8,0
2003/1/5,17:15:00,13.5,0,49,0,10.3,0,8.5,0,13.8,0
2003/1/5,17:30:00,13.3,0,49.4,0,10.3,0,8.6,0,13.6,0
2003/1/5,17:45:00,13.3,0,49,0,10.2,0,8.7,0,13.4,0
2003/1/5,18:00:00,13.2,0,49,0,10.2,0,8.7,0,13.3,0
2003/1/5,18:15:00,13.2,0,48.9,0,10.1,0,8.8,0,13.2,0
2003/1/5,18:30:00,13.1,0,49,0,10,0,8.9,0,13.1,0
2003/1/5,18:45:00,13,0,49,0,9.8,0,8.9,0,13.1,0
2003/1/5,19:00:00,14.3,0,46.1,0,9.9,0,8.9,0,13.9,0
2003/1/5,19:15:00,14.9,0,47.7,0,10,0,9,0,18.8,0
2003/1/5,19:30:00,16.5,0,44.8,0,10.2,0,9.1,0,22.2,0
2003/1/5,19:45:00,16.2,0,47.1,0,10.3,0,6.2,0,21.3,0